This demonstration page uses our WeatherBlox Daily Observations layout. Learn more.

Left ArrowRight Arrow

Hourly Observations for April 4, 2021

Temp ( °F °C ) Dew Point ( °F °C ) Humidity (%) Winds ( mph kmh ) Pressure ( in mb ) Visibility ( mi km ) Precip ( " mm )
12:15 am 00:15 Clear 37 3 32 0 81 81 Calm 30.27 1025 10 16.0934 0 0
12:35 am 00:35 Clear 37 3 28 -2 70 70 SSW 3 6 30.26 1025 10 16.0934 0 0
12:55 am 00:55 Mostly Cloudy 37 3 30 -1 75 75 Calm 30.27 1025 10 16.0934 0 0
1:15 am 01:15 Cloudy 37 3 30 -1 75 75 Calm 30.27 1025 10 16.0934 0 0
1:35 am 01:35 Cloudy 39 4 30 -1 70 70 Calm 30.26 1025 10 16.0934 0 0
1:55 am 01:55 Cloudy 37 3 32 0 81 81 Calm 30.25 1024 10 16.0934 0 0
2:15 am 02:15 Cloudy 36 2 32 0 87 87 Calm 30.25 1024 10 16.0934 0 0
2:35 am 02:35 Cloudy 36 2 30 -1 81 81 Calm 30.24 1024 10 16.0934 0 0
2:55 am 02:55 Cloudy 36 2 32 0 87 87 Calm 30.23 1024 10 16.0934 0 0
3:15 am 03:15 Cloudy 36 2 32 0 87 87 Calm 30.22 1023 10 16.0934 0 0
3:35 am 03:35 Cloudy 36 2 32 0 87 87 Calm 30.22 1023 10 16.0934 0 0
3:55 am 03:55 Cloudy 37 3 32 0 81 81 undefined N/A 30.21 1023 10 16.0934 0 0
4:15 am 04:15 Cloudy 37 3 32 0 81 81 Calm 30.2 1023 10 16.0934 0 0
4:35 am 04:35 Cloudy 37 3 30 -1 75 75 SW 3 6 30.2 1023 10 16.0934 0 0
4:55 am 04:55 Cloudy 37 3 32 0 81 81 SW 3 6 30.2 1023 10 16.0934 0 0
5:15 am 05:15 Cloudy 39 4 32 0 75 75 SW 3 6 30.19 1022 10 16.0934 0 0
5:35 am 05:35 Cloudy 39 4 30 -1 70 70 SW 3 6 30.19 1022 10 16.0934 0 0
5:55 am 05:55 Cloudy 41 5 30 -1 66 66 SSW 3 6 30.18 1022 10 16.0934 0 0
6:15 am 06:15 Cloudy 39 4 30 -1 70 70 SSW 3 6 30.18 1022 10 16.0934 0 0
6:35 am 06:35 Cloudy 41 5 28 -2 61 61 SW 5 7 30.17 1022 10 16.0934 0 0
6:55 am 06:55 Cloudy 41 5 28 -2 61 61 SW 3 6 30.17 1022 10 16.0934 0 0
7:15 am 07:15 Cloudy 37 3 28 -2 70 70 SW 3 6 30.18 1022 10 16.0934 0 0
7:35 am 07:35 Partly Cloudy 39 4 28 -2 65 65 SW 5 7 30.18 1022 10 16.0934 0 0
7:55 am 07:55 Sunny 41 5 30 -1 66 66 SW 3 6 30.17 1022 10 16.0934 0 0
8:15 am 08:15 Sunny 45 7 30 -1 57 57 SW 5 7 30.17 1022 10 16.0934 0 0
8:35 am 08:35 Partly Cloudy 46 8 30 -1 53 53 SW 3 6 30.17 1022 10 16.0934 0 0
8:55 am 08:55 Partly Cloudy 48 9 30 -1 50 50 SW 6 9 30.17 1022 10 16.0934 0 0
9:15 am 09:15 Mostly Cloudy 50 10 32 0 50 50 SW 5 7 30.16 1021 10 16.0934 0 0
9:35 am 09:35 Partly Cloudy 54 12 34 1 47 47 WNW 9 15 30.15 1021 10 16.0934 0 0
9:55 am 09:55 Sunny 59 15 34 1 39 39 WNW 15 24 30.14 1021 10 16.0934 0 0
10:15 am 10:15 Sunny 61 16 34 1 36 36 NW 16 26 30.14 1021 10 16.0934 0 0
10:35 am 10:35 Sunny 61 16 34 1 36 36 WNW 13 20 30.13 1020 10 16.0934 0 0
10:55 am 10:55 Sunny 63 17 36 2 37 37 WNW 18 30 30.13 1020 10 16.0934 0 0
11:15 am 11:15 Sunny 63 17 36 2 37 37 NW 17 28 30.13 1020 10 16.0934 0 0
11:35 am 11:35 Sunny 63 17 36 2 37 37 NW 18 30 30.12 1020 10 16.0934 0 0
11:55 am 11:55 Sunny 64 18 37 3 37 37 NNW 22 35 30.11 1020 10 16.0934 0 0
12:15 pm 12:15 Sunny 64 18 37 3 37 37 WNW 14 22 30.11 1020 10 16.0934 0 0
12:35 pm 12:35 Sunny 64 18 36 2 34 34 N 16 26 30.1 1019 10 16.0934 0 0
12:55 pm 12:55 Sunny 66 19 36 2 32 32 NNW 16 26 30.09 1019 10 16.0934 0 0
1:15 pm 13:15 Sunny 66 19 36 2 32 32 NW 12 19 30.09 1019 10 16.0934 0 0
1:35 pm 13:35 Sunny 68 20 36 2 30 30 NW 9 15 30.08 1019 10 16.0934 0 0
1:55 pm 13:55 Sunny 68 20 36 2 30 30 NNW 13 20 30.07 1018 10 16.0934 0 0
2:15 pm 14:15 Sunny 68 20 37 3 33 33 NW 14 22 30.06 1018 10 16.0934 0 0
2:35 pm 14:35 Sunny 68 20 36 2 30 30 NNW 9 15 30.05 1018 10 16.0934 0 0
2:55 pm 14:55 Sunny 70 21 36 2 29 29 NNW 13 20 30.04 1017 10 16.0934 0 0
3:15 pm 15:15 Sunny 70 21 36 2 29 29 NW 16 26 30.04 1017 10 16.0934 0 0
3:35 pm 15:35 Sunny 70 21 36 2 29 29 NNW 15 24 30.02 1017 10 16.0934 0 0
3:55 pm 15:55 Sunny 70 21 36 2 29 29 NNW 12 19 30.01 1016 10 16.0934 0 0
4:15 pm 16:15 Sunny 72 22 34 1 25 25 NNW 13 20 30.01 1016 10 16.0934 0 0
4:35 pm 16:35 Sunny 72 22 34 1 25 25 NNW 14 22 30.01 1016 10 16.0934 0 0
4:55 pm 16:55 Sunny 72 22 34 1 25 25 NW 16 26 30.01 1016 10 16.0934 0 0
5:15 pm 17:15 Sunny 72 22 32 0 23 23 NNW 20 31 30 1016 10 16.0934 0 0
5:35 pm 17:35 Sunny 70 21 32 0 25 25 N 13 20 30 1016 10 16.0934 0 0
5:55 pm 17:55 Sunny 70 21 32 0 25 25 NNW 12 19 30.01 1016 10 16.0934 0 0
6:15 pm 18:15 Sunny 70 21 32 0 25 25 NNW 13 20 30.01 1016 10 16.0934 0 0
6:35 pm 18:35 Sunny 68 20 32 0 26 26 NNW 14 22 30.01 1016 10 16.0934 0 0
6:55 pm 18:55 Sunny 68 20 32 0 26 26 NNW 13 20 30.01 1016 10 16.0934 0 0
7:15 pm 19:15 Sunny 66 19 32 0 28 28 NNW 8 13 30.01 1016 10 16.0934 0 0
7:35 pm 19:35 Sunny 64 18 32 0 30 30 NNW 12 19 30.02 1017 10 16.0934 0 0
7:55 pm 19:55 Clear 61 16 32 0 34 34 NW 8 13 30.03 1017 10 16.0934 0 0
8:15 pm 20:15 Clear 63 17 32 0 32 32 NNW 7 11 30.04 1017 10 16.0934 0 0
8:35 pm 20:35 Clear 63 17 32 0 32 32 NNW 6 9 30.05 1017 10 16.0934 0 0
8:55 pm 20:55 Clear 59 15 32 0 36 36 NNW 8 13 30.05 1018 10 16.0934 0 0
9:15 pm 21:15 Clear 59 15 32 0 36 36 NNW 9 15 30.06 1018 10 16.0934 0 0
9:35 pm 21:35 Clear 61 16 32 0 34 34 NNW 12 19 30.07 1018 10 16.0934 0 0
9:55 pm 21:55 Clear 61 16 30 -1 31 31 NNW 10 17 30.07 1018 10 16.0934 0 0
10:15 pm 22:15 Clear 61 16 30 -1 31 31 NNW 12 19 30.08 1019 10 16.0934 0 0
10:35 pm 22:35 Clear 61 16 30 -1 31 31 NNW 8 13 30.08 1019 10 16.0934 0 0
10:55 pm 22:55 Clear 59 15 30 -1 34 34 NNW 8 13 30.08 1019 10 16.0934 0 0
11:15 pm 23:15 Clear 59 15 30 -1 34 34 NNW 8 13 30.08 1019 10 16.0934 0 0
11:35 pm 23:35 Clear 59 15 28 -2 31 31 N 3 6 30.09 1019 10 16.0934 0 0
11:55 pm 23:55 Clear 59 15 28 -2 31 31 NNW 3 6 30.09 1019 10 16.0934 0 0

Powered by AerisWeather